DW8622 Weather Reports


Display with metric or nautical units.
time (UTC)temp
F
wind
direction
speed
MPH
gust
MPH
rain 1hr
in
rain 24hr
in
rain mn
in
humidity
%
barometer
mb
20210615061505 62 51 4.0 7.0 0.00 0.00 0.00 77 1021.2
20210615060506 63 56 3.0 6.0 0.00 0.00 0.00 77 1021.0
20210615060005 63 53 1.0 4.0 0.00 0.00 0.00 78 1021.0
20210615055505 63 52 1.0 4.0 0.00 0.00 0.00 78 1021.0
20210615055005 62 52 3.0 6.0 0.00 0.00 0.00 78 1021.0
20210615054505 62 51 4.0 7.0 0.00 0.00 0.00 78 1021.0
20210615054006 62 51 4.0 7.0 0.00 0.00 0.00 77 1020.9
20210615053505 62 49 4.0 6.0 0.00 0.00 0.00 78 1020.8
20210615053005 62 47 4.0 6.0 0.00 0.00 0.00 78 1020.8
20210615052505 62 46 4.0 7.0 0.00 0.00 0.00 78 1020.8
20210615052005 62 44 4.0 7.0 0.00 0.00 0.00 78 1020.7
20210615051506 62 42 5.0 8.0 0.00 0.00 0.00 77 1020.7
20210615051005 62 42 5.0 8.0 0.00 0.00 0.00 77 1020.7
20210615050506 62 42 4.0 7.0 0.00 0.00 0.00 77 1020.7
20210615050006 62 42 5.0 8.0 0.00 0.00 0.00 77 1020.6
20210615045505 62 42 5.0 8.0 0.00 0.00 0.00 77 1020.7
20210615045006 62 40 3.0 8.0 0.00 0.00 0.00 77 1020.6
20210615044505 62 39 2.0 4.0 0.00 0.00 0.00 77 1020.7
20210615044006 62 39 2.0 7.0 0.00 0.00 0.00 77 1020.6
20210615043505 62 39 2.0 7.0 0.00 0.00 0.00 77 1020.6
20210615043006 62 41 2.0 5.0 0.00 0.00 0.00 77 1020.5
20210615042505 62 43 3.0 5.0 0.00 0.00 0.00 78 1020.5
20210615042006 62 44 3.0 6.0 0.00 0.00 0.00 78 1020.5
20210615041506 62 44 4.0 8.0 0.00 0.00 0.00 79 1020.4
20210615041005 62 43 3.0 8.0 0.00 0.00 0.00 79 1020.3
20210615040505 62 43 2.0 5.0 0.00 0.00 0.00 79 1020.1
20210615040006 62 42 2.0 5.0 0.00 0.00 0.00 79 1020.3
20210615035505 62 41 3.0 5.0 0.00 0.00 0.00 79 1020.2
20210615035006 62 40 3.0 5.0 0.00 0.00 0.00 79 1020.2
20210615034506 62 40 2.0 5.0 0.00 0.00 0.00 79 1020.3
20210615034005 62 38 1.0 5.0 0.00 0.00 0.00 80 1020.3
20210615033506 62 35 1.0 3.0 0.00 0.00 0.00 80 1020.2
20210615033006 62 34 1.0 3.0 0.00 0.00 0.00 80 1020.2
20210615032505 62 34 1.0 3.0 0.00 0.00 0.00 80 1020.1
20210615032005 62 32 1.0 3.0 0.00 0.00 0.00 80 1019.9
20210615031505 62 32 1.0 3.0 0.00 0.00 0.00 80 1020.0
20210615031005 62 31 1.0 3.0 0.00 0.00 0.00 80 1020.0
20210615030505 62 31 1.0 3.0 0.00 0.00 0.00 80 1020.0
20210615030005 62 30 1.0 3.0 0.00 0.00 0.00 80 1020.0
20210615025506 63 28 0.0 3.0 0.00 0.00 0.00 80 1020.0
20210615025006 63 26 0.0 4.0 0.00 0.00 0.00 80 1020.0
20210615024505 63 22 1.0 4.0 0.00 0.00 0.00 80 1019.9
20210615024005 63 18 1.0 3.0 0.00 0.00 0.00 80 1019.9
20210615023505 63 16 0.0 3.0 0.00 0.00 0.00 80 1019.9
20210615023005 63 14 0.0 2.0 0.00 0.00 0.00 80 1020.0
20210615022506 63 12 1.0 3.0 0.00 0.00 0.00 80 1020.0
20210615022006 63 10 1.0 3.0 0.00 0.00 0.00 80 1020.0
20210615021506 63 8 0.0 3.0 0.00 0.00 0.00 80 1020.0
20210615021006 62 7 0.0 3.0 0.00 0.00 0.00 80 1020.0
20210615020506 63 5 0.0 3.0 0.00 0.00 0.00 80 1020.0
20210615020006 63 5 0.0 3.0 0.00 0.00 0.00 80 1020.0
20210615015506 63 20 0.0 1.0 0.00 0.00 0.00 80 1020.0
20210615015006 62 19 0.0 2.0 0.00 0.00 0.00 80 1019.9
20210615014505 62 19 0.0 2.0 0.00 0.00 0.00 80 1019.8
20210615014005 62 0 0.0 0.0 0.00 0.00 0.00 80 1019.8
20210615013505 62 0 0.0 0.0 0.00 0.00 0.00 81 1019.8
20210615013005 62 0 0.0 0.0 0.00 0.00 0.00 81 1019.8
20210615012505 62 12 0.0 3.0 0.00 0.00 0.00 81 1019.8
20210615012005 62 12 0.0 3.0 0.00 0.00 0.00 81 1019.8
20210615011505 62 8 0.0 2.0 0.00 0.00 0.00 81 1019.8
20210615011006 62 9 0.0 4.0 0.00 0.00 0.00 81 1019.7
20210615010506 62 9 0.0 4.0 0.00 0.00 0.00 81 1019.7
20210615010006 62 7 0.0 1.0 0.00 0.00 0.00 81 1019.7
20210615005506 62 8 0.0 4.0 0.00 0.00 0.00 80 1019.7
20210615005005 62 8 0.0 4.0 0.00 0.00 0.00 80 1019.6
20210615004505 62 14 0.0 4.0 0.00 0.00 0.00 80 1019.6
20210615004006 62 14 0.0 4.0 0.00 0.00 0.00 80 1019.6
20210615003506 62 15 0.0 4.0 0.00 0.00 0.00 80 1019.6
20210615003005 62 15 0.0 3.0 0.00 0.00 0.00 80 1019.5
20210615002505 62 0 0.0 0.0 0.00 0.00 0.00 80 1019.5
20210615002006 62 15 0.0 1.0 0.00 0.00 0.00 80 1019.5
20210615001506 62 27 0.0 5.0 0.00 0.00 0.00 80 1019.5
20210615001005 62 28 0.0 5.0 0.00 0.00 0.00 80 1019.5
20210615000506 62 33 0.0 2.0 0.00 0.00 0.00 80 1019.4
20210615000005 62 34 0.0 2.0 0.00 0.00 0.00 79 1019.4
20210614235505 62 34 0.0 2.0 0.00 0.00 0.00 80 1019.3
20210614235005 63 34 0.0 2.0 0.00 0.00 0.00 80 1019.3
20210614234505 63 34 0.0 2.0 0.00 0.00 0.00 80 1019.3
20210614234006 63 35 0.0 4.0 0.00 0.00 0.00 79 1019.3
20210614233505 63 35 0.0 4.0 0.00 0.00 0.00 79 1019.4
20210614233005 63 33 0.0 2.0 0.00 0.00 0.00 79 1019.4
20210614232505 63 33 0.0 3.0 0.00 0.00 0.00 79 1019.4
20210614232006 63 33 0.0 3.0 0.00 0.00 0.00 79 1019.5
20210614231506 63 37 0.0 3.0 0.00 0.00 0.00 79 1019.6
20210614231005 63 38 0.0 3.0 0.00 0.00 0.00 79 1019.5
20210614230505 63 46 0.0 3.0 0.00 0.00 0.00 79 1019.5
20210614230005 63 27 1.0 6.0 0.00 0.00 0.00 79 1019.5
20210614225505 63 11 0.0 6.0 0.00 0.00 0.00 79 1019.4
20210614225005 63 357 0.0 2.0 0.00 0.00 0.00 79 1019.5
20210614224506 63 357 0.0 2.0 0.00 0.00 0.00 79 1019.5
20210614224006 63 0 0.0 0.0 0.00 0.00 0.00 79 1019.4
20210614223505 63 354 0.0 2.0 0.00 0.00 0.00 79 1019.5
20210614223005 63 354 0.0 2.0 0.00 0.00 0.00 79 1019.5
20210614222505 63 352 0.0 2.0 0.00 0.00 0.00 79 1019.5
20210614222005 63 352 0.0 1.0 0.00 0.00 0.00 79 1019.5
20210614221506 63 351 0.0 4.0 0.00 0.00 0.00 79 1019.5
20210614221005 63 350 1.0 4.0 0.00 0.00 0.00 79 1019.5
20210614220505 63 349 1.0 4.0 0.00 0.00 0.00 79 1019.5
20210614220006 63 347 1.0 5.0 0.00 0.00 0.00 79 1019.5
20210614215505 63 345 1.0 5.0 0.00 0.00 0.00 79 1019.4
20210614215005 63 343 0.0 4.0 0.00 0.00 0.00 79 1019.4
20210614214505 63 342 0.0 3.0 0.00 0.00 0.00 79 1019.4
20210614214005 64 342 1.0 4.0 0.00 0.00 0.00 79 1019.4
20210614213506 63 340 2.0 5.0 0.00 0.00 0.00 79 1019.4
20210614213006 64 338 2.0 8.0 0.00 0.00 0.00 79 1019.4
20210614212506 64 337 2.0 8.0 0.00 0.00 0.00 79 1019.4
20210614212006 64 337 2.0 5.0 0.00 0.00 0.00 79 1019.4
20210614211505 64 330 3.0 8.0 0.00 0.00 0.00 79 1019.4
20210614211006 64 329 3.0 8.0 0.00 0.00 0.00 79 1019.4
20210614210505 64 331 2.0 7.0 0.00 0.00 0.00 79 1019.3
20210614210006 64 334 2.0 8.0 0.00 0.00 0.00 79 1019.3
20210614205506 64 337 3.0 8.0 0.00 0.00 0.00 79 1019.3
20210614205005 64 340 3.0 8.0 0.00 0.00 0.00 79 1019.3
20210614204507 64 341 3.0 8.0 0.00 0.00 0.00 79 1019.3
20210614204005 64 340 3.0 8.0 0.00 0.00 0.00 79 1019.2
20210614203506 65 340 3.0 9.0 0.00 0.00 0.00 79 1019.2
20210614203006 65 337 4.0 9.0 0.00 0.00 0.00 79 1019.2
20210614202505 65 337 4.0 9.0 0.00 0.00 0.00 79 1019.2
20210614202006 65 338 3.0 11.0 0.00 0.00 0.00 78 1019.1
20210614201506 65 336 4.0 11.0 0.00 0.00 0.00 78 1019.1
20210614201005 66 333 5.0 10.0 0.00 0.00 0.00 78 1019.1
20210614200506 66 329 4.0 10.0 0.00 0.00 0.00 78 1019.0
20210614200006 67 329 3.0 9.0 0.00 0.00 0.00 78 1019.0
20210614195506 67 337 2.0 9.0 0.00 0.00 0.00 77 1018.9
20210614195006 67 343 1.0 5.0 0.00 0.00 0.00 76 1018.8
20210614194505 67 344 1.0 5.0 0.00 0.00 0.00 76 1018.8
20210614194006 67 345 1.0 5.0 0.00 0.00 0.00 76 1018.7
20210614193506 67 345 1.0 5.0 0.00 0.00 0.00 76 1018.8
20210614193005 67 345 1.0 5.0 0.00 0.00 0.00 76 1018.8
20210614192506 68 345 1.0 4.0 0.00 0.00 0.00 75 1018.7
20210614192006 68 344 1.0 4.0 0.00 0.00 0.00 75 1018.7
20210614191505 68 345 1.0 5.0 0.00 0.00 0.00 75 1018.6
20210614191005 68 346 1.0 5.0 0.00 0.00 0.00 74 1018.7
20210614190506 68 347 0.0 4.0 0.00 0.00 0.00 74 1018.6
20210614190006 69 347 1.0 6.0 0.00 0.00 0.00 74 1018.6
20210614185506 69 342 1.0 7.0 0.00 0.00 0.00 73 1018.6
20210614185005 69 346 3.0 7.0 0.00 0.00 0.00 73 1018.6
20210614184506 69 349 4.0 10.0 0.00 0.00 0.00 72 1018.5
20210614184006 69 350 4.0 12.0 0.00 0.00 0.00 71 1018.4
20210614183506 69 348 4.0 12.0 0.00 0.00 0.00 71 1018.4
20210614183006 69 347 4.0 10.0 0.00 0.00 0.00 71 1018.5
20210614182506 70 346 5.0 11.0 0.00 0.00 0.00 70 1018.5
20210614182006 70 341 5.0 13.0 0.00 0.00 0.00 69 1018.5
20210614181505 70 339 6.0 15.0 0.00 0.00 0.00 69 1018.5
20210614181006 71 341 7.0 15.0 0.00 0.00 0.00 66 1018.5
20210614180506 71 336 8.0 14.0 0.00 0.00 0.00 66 1018.5
20210614180006 71 334 8.0 14.0 0.00 0.00 0.00 64 1018.5
20210614175506 72 338 8.0 16.0 0.00 0.00 0.00 63 1018.5
20210614175006 73 340 8.0 16.0 0.00 0.00 0.00 61 1018.5
20210614174505 74 341 8.0 17.0 0.00 0.00 0.00 60 1018.5
20210614174006 75 342 8.0 17.0 0.00 0.00 0.00 58 1018.4
20210614173506 76 339 5.0 13.0 0.00 0.00 0.00 56 1018.3
20210614173006 77 336 4.0 10.0 0.00 0.00 0.00 54 1018.3
20210614172505 77 334 5.0 10.0 0.00 0.00 0.00 53 1018.3
20210614172006 77 336 4.0 11.0 0.00 0.00 0.00 52 1018.3
20210614171506 77 334 4.0 11.0 0.00 0.00 0.00 51 1018.3
20210614171006 78 316 4.0 11.0 0.00 0.00 0.00 49 1018.3
20210614170505 79 305 4.0 11.0 0.00 0.00 0.00 46 1018.4
20210614170006 79 301 3.0 11.0 0.00 0.00 0.00 45 1018.4
20210614165505 79 303 4.0 12.0 0.00 0.00 0.00 43 1018.4
20210614165006 79 301 4.0 12.0 0.00 0.00 0.00 42 1018.4
20210614164506 79 295 4.0 13.0 0.00 0.00 0.00 44 1018.4
20210614164006 80 304 4.0 13.0 0.00 0.00 0.00 44 1018.3
20210614163506 80 318 4.0 12.0 0.00 0.00 0.00 45 1018.3
20210614163005 80 320 4.0 10.0 0.00 0.00 0.00 44 1018.4
20210614162506 80 297 4.0 11.0 0.00 0.00 0.00 43 1018.4
20210614162006 80 285 4.0 11.0 0.00 0.00 0.00 44 1018.5
20210614161506 80 291 4.0 11.0 0.00 0.00 0.00 35 1018.4
20210614161006 80 278 5.0 13.0 0.00 0.00 0.00 36 1018.4
20210614160506 80 280 6.0 13.0 0.00 0.00 0.00 36 1018.5
20210614160005 81 281 5.0 12.0 0.00 0.00 0.00 39 1018.5
20210614155506 81 270 6.0 12.0 0.00 0.00 0.00 38 1018.5
20210614155006 81 272 6.0 12.0 0.00 0.00 0.00 37 1018.5
20210614154506 81 275 5.0 10.0 0.00 0.00 0.00 36 1018.5
20210614154006 82 276 5.0 11.0 0.00 0.00 0.00 36 1018.6
20210614153506 82 279 5.0 12.0 0.00 0.00 0.00 38 1018.6
20210614153006 82 282 4.0 12.0 0.00 0.00 0.00 37 1018.6
20210614152505 82 284 4.0 10.0 0.00 0.00 0.00 42 1018.7
20210614152006 82 289 4.0 10.0 0.00 0.00 0.00 39 1018.6
20210614151505 82 285 4.0 10.0 0.00 0.00 0.00 38 1018.6
20210614151006 82 272 4.0 11.0 0.00 0.00 0.00 39 1018.6
20210614150505 82 280 5.0 11.0 0.00 0.00 0.00 38 1018.6
20210614150006 82 287 4.0 11.0 0.00 0.00 0.00 40 1018.6
20210614145506 82 296 3.0 10.0 0.00 0.00 0.00 41 1018.7
20210614145006 82 297 5.0 12.0 0.00 0.00 0.00 43 1018.7
20210614144506 83 286 5.0 12.0 0.00 0.00 0.00 39 1018.6
20210614144006 83 288 3.0 10.0 0.00 0.00 0.00 40 1018.7
20210614143506 82 303 3.0 10.0 0.00 0.00 0.00 41 1018.7
20210614143006 82 283 4.0 11.0 0.00 0.00 0.00 40 1018.8
20210614142506 83 276 4.0 11.0 0.00 0.00 0.00 38 1018.7
20210614142006 82 279 4.0 9.0 0.00 0.00 0.00 41 1018.7
20210614141506 83 276 4.0 10.0 0.00 0.00 0.00 39 1018.8
20210614141006 82 270 5.0 10.0 0.00 0.00 0.00 40 1018.8
20210614140506 82 276 4.0 10.0 0.00 0.00 0.00 40 1018.9
20210614140005 83 298 3.0 9.0 0.00 0.00 0.00 43 1018.9
20210614135506 83 297 3.0 10.0 0.00 0.00 0.00 43 1018.8
20210614135006 83 297 3.0 10.0 0.00 0.00 0.00 44 1018.9
20210614134506 83 302 2.0 10.0 0.00 0.00 0.00 42 1018.9
20210614134006 83 299 2.0 9.0 0.00 0.00 0.00 46 1019.0
20210614133505 82 290 3.0 9.0 0.00 0.00 0.00 42 1019.0
20210614133006 82 284 4.0 11.0 0.00 0.00 0.00 43 1019.1
20210614132506 82 280 4.0 11.0 0.00 0.00 0.00 48 1019.1
20210614132005 82 281 5.0 11.0 0.00 0.00 0.00 44 1019.0
20210614131506 82 284 4.0 11.0 0.00 0.00 0.00 42 1019.1
20210614131005 82 291 5.0 11.0 0.00 0.00 0.00 44 1019.1
20210614130506 82 287 5.0 11.0 0.00 0.00 0.00 42 1019.2
20210614130005 83 283 4.0 11.0 0.00 0.00 0.00 43 1019.3
20210614125506 83 288 4.0 10.0 0.00 0.00 0.00 42 1019.3
20210614125006 83 285 3.0 10.0 0.00 0.00 0.00 39 1019.3
20210614124505 82 277 2.0 9.0 0.00 0.00 0.00 40 1019.3
20210614124006 82 274 3.0 10.0 0.00 0.00 0.00 42 1019.3
20210614123506 82 275 5.0 10.0 0.00 0.00 0.00 39 1019.3
20210614123006 82 272 5.0 10.0 0.00 0.00 0.00 41 1019.4
20210614122506 82 261 4.0 11.0 0.00 0.00 0.00 41 1019.4
20210614122006 81 251 4.0 11.0 0.00 0.00 0.00 44 1019.5
20210614121506 80 267 5.0 13.0 0.00 0.00 0.00 40 1019.4
20210614121006 81 269 5.0 13.0 0.00 0.00 0.00 39 1019.5
20210614120506 80 265 4.0 9.0 0.00 0.00 0.00 39 1019.5
20210614120005 81 273 5.0 9.0 0.00 0.00 0.00 40 1019.5
20210614115505 81 268 4.0 9.0 0.00 0.00 0.00 42 1019.5
20210614115006 80 256 3.0 8.0 0.00 0.00 0.00 42 1019.5
20210614114506 81 267 3.0 8.0 0.00 0.00 0.00 44 1019.5
20210614114006 80 276 3.0 9.0 0.00 0.00 0.00 42 1019.5
20210614113506 80 269 4.0 9.0 0.00 0.00 0.00 43 1019.5
20210614113006 80 256 3.0 9.0 0.00 0.00 0.00 42 1019.6
20210614112505 79 242 4.0 11.0 0.00 0.00 0.00 43 1019.6
20210614112005 80 254 5.0 11.0 0.00 0.00 0.00 41 1019.7
20210614111505 80 260 4.0 10.0 0.00 0.00 0.00 41 1019.7
20210614111005 80 258 4.0 8.0 0.00 0.00 0.00 41 1019.6
20210614110505 80 279 3.0 8.0 0.00 0.00 0.00 41 1019.7
20210614110006 80 274 4.0 9.0 0.00 0.00 0.00 41 1019.7
20210614105506 80 273 4.0 9.0 0.00 0.00 0.00 41 1019.7
20210614105006 79 269 3.0 8.0 0.00 0.00 0.00 41 1019.8
20210614104505 79 273 3.0 8.0 0.00 0.00 0.00 43 1019.7
20210614104005 80 275 3.0 8.0 0.00 0.00 0.00 42 1019.7
20210614103505 79 269 4.0 9.0 0.00 0.00 0.00 42 1019.8
20210614103006 78 269 3.0 9.0 0.00 0.00 0.00 44 1019.6
20210614102506 78 267 3.0 9.0 0.00 0.00 0.00 45 1019.7
20210614102005 79 273 3.0 8.0 0.00 0.00 0.00 41 1019.7
20210614101505 78 259 3.0 9.0 0.00 0.00 0.00 44 1019.9
20210614101006 78 251 3.0 9.0 0.00 0.00 0.00 43 1019.9
20210614100506 78 263 3.0 8.0 0.00 0.00 0.00 47 1019.9
20210614100006 78 263 3.0 7.0 0.00 0.00 0.00 46 1019.8
20210614095506 77 254 3.0 9.0 0.00 0.00 0.00 46 1019.9
20210614095005 77 261 4.0 10.0 0.00 0.00 0.00 48 1019.9
20210614094506 77 271 4.0 10.0 0.00 0.00 0.00 44 1020.0
20210614094006 77 271 3.0 11.0 0.00 0.00 0.00 48 1020.1
20210614093506 77 276 2.0 11.0 0.00 0.00 0.00 48 1020.1
20210614093006 76 271 2.0 6.0 0.00 0.00 0.00 51 1020.2
20210614092505 76 257 3.0 5.0 0.00 0.00 0.00 49 1020.2
20210614092006 76 258 3.0 7.0 0.00 0.00 0.00 49 1020.3
20210614091506 76 278 2.0 7.0 0.00 0.00 0.00 51 1020.3
20210614091006 76 247 2.0 6.0 0.00 0.00 0.00 52 1020.3
20210614090505 75 225 3.0 9.0 0.00 0.00 0.00 52 1020.4
20210614090006 75 232 3.0 9.0 0.00 0.00 0.00 52 1020.4
20210614085506 75 237 3.0 6.0 0.00 0.00 0.00 52 1020.4
20210614085006 75 236 2.0 5.0 0.00 0.00 0.00 54 1020.3
20210614084505 75 226 1.0 7.0 0.00 0.00 0.00 54 1020.3
20210614084005 74 233 2.0 8.0 0.00 0.00 0.00 57 1020.4
20210614083505 74 239 3.0 8.0 0.00 0.00 0.00 54 1020.4
20210614083006 73 233 3.0 8.0 0.00 0.00 0.00 55 1020.3
20210614082505 73 208 3.0 7.0 0.00 0.00 0.00 56 1020.2
20210614082005 73 212 3.0 7.0 0.00 0.00 0.00 56 1020.4
20210614081506 72 221 3.0 9.0 0.00 0.00 0.00 55 1020.4
20210614081006 72 209 3.0 9.0 0.00 0.00 0.00 56 1020.5
20210614080505 72 211 4.0 9.0 0.00 0.00 0.00 58 1020.6
20210614080006 71 213 4.0 9.0 0.00 0.00 0.00 59 1020.6
20210614075505 71 209 4.0 8.0 0.00 0.00 0.00 61 1020.6
20210614075006 71 206 3.0 7.0 0.00 0.00 0.00 62 1020.5
20210614074505 71 186 3.0 8.0 0.00 0.00 0.00 64 1020.5
20210614074006 70 173 5.0 9.0 0.00 0.00 0.00 63 1020.5
20210614073506 70 176 6.0 10.0 0.00 0.00 0.00 63 1020.6
20210614073006 69 179 6.0 11.0 0.00 0.00 0.00 63 1020.5
20210614072506 69 178 5.0 11.0 0.00 0.00 0.00 63 1020.5
20210614072006 69 182 5.0 10.0 0.00 0.00 0.00 65 1020.6
20210614071506 69 189 5.0 9.0 0.00 0.00 0.00 66 1020.6
20210614071006 68 184 5.0 10.0 0.00 0.00 0.00 65 1020.6
20210614070506 68 179 5.0 11.0 0.00 0.00 0.00 67 1020.7
20210614070006 67 178 5.0 11.0 0.00 0.00 0.00 69 1020.6
20210614065506 67 175 4.0 7.0 0.00 0.00 0.00 69 1020.7
20210614065006 67 178 3.0 6.0 0.00 0.00 0.00 70 1020.9
20210614064506 66 182 3.0 7.0 0.00 0.00 0.00 71 1021.0
20210614064006 66 178 4.0 7.0 0.00 0.00 0.00 71 1021.1
20210614063506 65 177 4.0 7.0 0.00 0.00 0.00 73 1021.1
20210614063006 65 176 4.0 7.0 0.00 0.00 0.00 74 1021.1
20210614062506 65 174 3.0 7.0 0.00 0.00 0.00 75 1021.1
20210614062006 64 171 1.0 7.0 0.00 0.00 0.00 76 1021.1